Weather History for KFDK - January, 2013

Change the Weather History Date:

Thursday, January 24, 2013

  Actual Average (KHGR) Record (KHGR)
Temperature  
Mean Temperature 21 °F 31 °F  
Max Temperature 28 °F 38 °F - ()
Min Temperature 14 °F 24 °F - ()
Degree Days  
Heating Degree Days 44 34  
Month to date heating degree days 821  
Since 1 July heating degree days 2785  
Cooling Degree Days 0 0  
Month to date cooling degree days 0  
Year to date cooling degree days 0  
Moisture  
Dew Point 10 °F    
Average Humidity 69    
Maximum Humidity 100    
Minimum Humidity 40    
Precipitation  
Precipitation 0.00 in 0.09 in - ()
Month to date precipitation 2.09  
Year to date precipitation 2.09  
Sea Level Pressure  
Sea Level Pressure 30.34 in    
Wind  
Wind Speed 6 mph (North)    
Max Wind Speed 17 mph    
Max Gust Speed 26 mph    
Visibility 7 miles    
Events Snow    
T = Trace of Precipitation, MM = Missing Value Source: NWS Daily Summary

Daily Weather History Graph

Daily Weather History Graph

Search for Another Location

Airport or City:

Trip Planner

Search our weather history database for the weather conditions in past years. The results will help you decide how hot, cold, wet, or windy it might be!

Date:

Astronomy

Jan. 24, 2013 Rise Set
Actual Time 7:23 AM EST 5:20 PM EST
Civil Twilight 6:54 AM EST 5:49 PM EST
Nautical Twilight 6:21 AM EST 6:22 PM EST
Astronomical Twilight 5:49 AM EST 6:54 PM EST
Moon 3:21 PM EST (1/24) 5:18 AM EST (1/24)
Length of Visible Light 10h 55m
Length of Day
9h 57m
Waxing Gibbous, 94% of the Moon is Illuminated
Jan 24
Waxing Gibbous
Jan 26
Full
Feb 3
Last Quarter
Feb 10
New
Feb 17
First Quarter

Hourly Weather History & Observations

Time (EST) Temp. Windchill Dew Point Humidity Pressure Visibility Wind Dir Wind Speed Gust Speed Precip Events Conditions
12:15 AM 21.2 °F 11.7 °F 12.2 °F 68% 30.16 in 10.0 mi NE 8.1 mph - N/A   Overcast
12:40 AM 19.4 °F 11.5 °F 14.0 °F 80% 30.15 in 5.0 mi ENE 5.8 mph - N/A Snow Light Snow
1:00 AM 19.4 °F 12.8 °F 14.0 °F 80% 30.15 in 4.0 mi ENE 4.6 mph - N/A Snow Light Snow
1:20 AM 19.4 °F 12.8 °F 15.8 °F 86% 30.14 in 4.0 mi ENE 4.6 mph - N/A Snow Light Snow
1:40 AM 19.4 °F 14.3 °F 15.8 °F 86% 30.14 in 3.0 mi NE 3.5 mph - N/A Snow Light Snow
2:05 AM 19.4 °F 14.3 °F 17.6 °F 93% 30.14 in 1.8 mi NE 3.5 mph - N/A Snow Light Snow
2:25 AM 19.4 °F 14.3 °F 17.6 °F 93% 30.13 in 2.0 mi NNE 3.5 mph - N/A Snow Light Snow
2:45 AM 19.4 °F 14.3 °F 17.6 °F 93% 30.13 in 2.5 mi NNE 3.5 mph - N/A Snow Light Snow
3:05 AM 19.4 °F 11.5 °F 17.6 °F 93% 30.14 in 2.0 mi NNE 5.8 mph - N/A Snow Light Snow
3:30 AM 19.4 °F 14.3 °F 17.6 °F 93% 30.14 in 2.0 mi NE 3.5 mph - N/A Snow Light Snow
3:50 AM 19.4 °F 11.5 °F 17.6 °F 93% 30.14 in 2.0 mi NNE 5.8 mph - N/A Snow Light Snow
4:10 AM 17.6 °F 9.3 °F 17.6 °F 100% 30.14 in 1.2 mi NNE 5.8 mph - N/A Snow Light Snow
4:35 AM 17.6 °F 10.7 °F 15.8 °F 93% 30.15 in 2.0 mi NNE 4.6 mph - N/A Snow Light Snow
4:55 AM 17.6 °F 7.3 °F 15.8 °F 93% 30.16 in 3.0 mi NNE 8.1 mph - N/A Snow Light Snow
5:15 AM 17.6 °F 7.3 °F 14.0 °F 86% 30.17 in 2.0 mi NNE 8.1 mph - N/A Snow Light Snow
5:35 AM 17.6 °F 6.4 °F 14.0 °F 86% 30.18 in 2.5 mi North 9.2 mph - N/A Snow Light Snow
5:50 AM 17.6 °F 7.3 °F 14.0 °F 86% 30.19 in 5.0 mi North 8.1 mph - N/A   Overcast
6:47 AM 15.8 °F 7.2 °F 14.0 °F 93% 30.23 in 2.5 mi NNE 5.8 mph - N/A Snow Light Snow
7:55 AM 15.8 °F 7.2 °F 12.2 °F 86% 30.28 in 4.0 mi North 5.8 mph - N/A   Overcast
8:52 AM 17.6 °F 10.7 °F 12.2 °F 79% 30.32 in 10.0 mi NNE 4.6 mph - N/A   Scattered Clouds
9:50 AM 28.4 °F - 15.8 °F 59% 30.34 in 10.0 mi Calm Calm - N/A   Scattered Clouds
10:55 AM 26.6 °F 15.2 °F 12.2 °F 55% 30.37 in 10.0 mi NNW 13.8 mph - N/A   Clear
11:52 AM 26.6 °F 14.7 °F 12.2 °F 55% 30.39 in 10.0 mi NNW 15.0 mph 21.9 mph N/A   Mostly Cloudy
12:50 PM 28.4 °F 18.0 °F 10.4 °F 47% 30.40 in 10.0 mi North 12.7 mph 19.6 mph N/A   Scattered Clouds
1:45 PM 26.6 °F 13.8 °F 8.6 °F 47% 30.40 in 10.0 mi NNW 17.3 mph 26.5 mph N/A   Scattered Clouds
2:47 PM 28.4 °F 19.1 °F 6.8 °F 40% 30.42 in 10.0 mi North 10.4 mph 23.0 mph N/A   Scattered Clouds
3:46 PM 24.8 °F 12.9 °F 3.2 °F 40% 30.45 in 10.0 mi NNW 13.8 mph 25.3 mph N/A   Mostly Cloudy
4:45 PM 24.8 °F 12.4 °F 3.2 °F 40% 30.46 in 10.0 mi NNW 15.0 mph 20.7 mph N/A   Scattered Clouds
5:59 PM 21.2 °F 10.9 °F 5.0 °F 50% 30.50 in 10.0 mi NNW 9.2 mph - N/A   Clear
6:46 PM 19.4 °F 12.8 °F 5.0 °F 54% 30.52 in 10.0 mi NW 4.6 mph - N/A   Clear
7:50 PM 17.6 °F 7.3 °F 3.2 °F 53% 30.53 in 10.0 mi NW 8.1 mph - N/A   Clear
7:55 PM 19.4 °F 11.5 °F 5.0 °F 54% 30.53 in 10.0 mi NW 5.8 mph - N/A   Clear
8:20 PM 17.6 °F 12.3 °F 5.0 °F 58% 30.53 in 10.0 mi NW 3.5 mph - N/A   Clear
8:40 PM 17.6 °F 10.7 °F 3.2 °F 53% 30.53 in 10.0 mi NW 4.6 mph - N/A   Clear
9:00 PM 14.0 °F - 3.2 °F 62% 30.53 in 10.0 mi Calm Calm - N/A   Clear
9:20 PM 15.8 °F 10.2 °F 5.0 °F 62% 30.52 in 10.0 mi NNW 3.5 mph - N/A   Clear
9:45 PM 17.6 °F 9.3 °F 5.0 °F 58% 30.53 in 10.0 mi NW 5.8 mph - N/A   Clear
10:05 PM 15.8 °F 8.6 °F 3.2 °F 58% 30.53 in 10.0 mi NW 4.6 mph - N/A   Clear
10:25 PM 19.4 °F 11.5 °F 3.2 °F 49% 30.52 in 10.0 mi NW 5.8 mph - N/A   Clear
10:45 PM 17.6 °F 8.2 °F 3.2 °F 53% 30.53 in 10.0 mi NW 6.9 mph - N/A   Clear
11:10 PM 17.6 °F 12.3 °F 3.2 °F 53% 30.53 in 10.0 mi WNW 3.5 mph - N/A   Clear
11:30 PM 17.6 °F 8.2 °F 3.2 °F 53% 30.54 in 10.0 mi West 6.9 mph - N/A   Clear
11:50 PM 17.6 °F 10.7 °F 3.2 °F 53% 30.54 in 10.0 mi NW 4.6 mph - N/A   Clear